Time,TemperatureF,DewpointF,PressureIn,WindDirection,WindDirectionDegrees,WindSpeedMPH,WindSpeedGustMPH,Humidity,HourlyPrecipIn,Conditions,Clouds,dailyrainin,SoftwareType,DateUTC
2013-02-22 00:00:00,35.2,33.6,30.27,NNW,334,0.0,4.0,94,0.15,,,0.35,meteohub,2013-02-22 05:00:00,
2013-02-22 00:05:00,35.2,33.6,30.26,NNE,25,1.0,4.0,94,0.12,,,0.35,meteohub,2013-02-22 05:05:00,
2013-02-22 00:10:00,35.2,33.6,30.25,NE,43,1.0,1.0,94,0.11,,,0.36,meteohub,2013-02-22 05:10:00,
2013-02-22 00:15:00,35.2,33.6,30.26,NE,36,1.0,2.0,94,0.10,,,0.37,meteohub,2013-02-22 05:15:00,
2013-02-22 00:20:00,35.2,34.0,30.26,NNE,20,0.0,2.0,95,0.10,,,0.38,meteohub,2013-02-22 05:20:00,
2013-02-22 00:25:00,35.2,34.0,30.27,NE,36,0.0,2.0,95,0.09,,,0.38,meteohub,2013-02-22 05:25:00,
2013-02-22 00:30:00,35.2,34.0,30.28,NE,35,0.0,2.0,95,0.10,,,0.39,meteohub,2013-02-22 05:30:00,
2013-02-22 00:35:00,35.2,34.0,30.29,West,274,1.0,3.0,95,0.10,,,0.40,meteohub,2013-02-22 05:35:00,
2013-02-22 00:40:00,35.2,34.0,30.30,WNW,288,0.0,3.0,95,0.10,,,0.41,meteohub,2013-02-22 05:40:00,
2013-02-22 00:45:00,35.2,34.0,30.29,ESE,113,3.0,4.0,95,0.12,,,0.43,meteohub,2013-02-22 05:45:00,
2013-02-22 00:50:00,35.2,34.0,30.29,NNE,12,1.0,4.0,95,0.12,,,0.45,meteohub,2013-02-22 05:50:00,
2013-02-22 00:55:00,35.2,34.0,30.28,NE,36,1.0,4.0,95,0.11,,,0.45,meteohub,2013-02-22 05:55:00,
2013-02-22 01:00:00,35.2,34.0,30.27,NE,55,0.0,4.0,95,0.11,,,0.46,meteohub,2013-02-22 06:00:00,
2013-02-22 01:05:00,35.1,33.8,30.27,NE,44,1.0,3.0,95,0.11,,,0.47,meteohub,2013-02-22 06:05:00,
2013-02-22 01:10:00,35.1,33.8,30.27,NE,45,0.0,3.0,95,0.12,,,0.48,meteohub,2013-02-22 06:10:00,
2013-02-22 01:16:00,35.1,33.8,30.27,NNE,30,0.0,3.0,95,0.12,,,0.49,meteohub,2013-02-22 06:16:00,
2013-02-22 01:21:00,35.1,33.8,30.27,NNW,345,0.0,2.0,95,0.11,,,0.49,meteohub,2013-02-22 06:21:00,
2013-02-22 01:27:00,35.1,33.8,30.28,NNE,20,0.0,2.0,95,0.11,,,0.50,meteohub,2013-02-22 06:27:00,
2013-02-22 01:32:00,35.1,33.8,30.27,NNE,13,0.0,2.0,95,0.12,,,0.51,meteohub,2013-02-22 06:32:00,
2013-02-22 01:38:00,35.1,33.8,30.27,NE,40,1.0,2.0,95,0.12,,,0.52,meteohub,2013-02-22 06:38:00,
2013-02-22 01:43:00,34.9,33.6,30.28,WNW,302,0.0,2.0,95,0.11,,,0.53,meteohub,2013-02-22 06:43:00,
2013-02-22 01:48:00,34.9,33.6,30.27,North,9,1.0,3.0,95,0.09,,,0.53,meteohub,2013-02-22 06:48:00,
2013-02-22 01:53:00,34.9,33.6,30.27,East,89,0.0,3.0,95,0.09,,,0.54,meteohub,2013-02-22 06:53:00,
2013-02-22 01:58:00,34.9,33.6,30.28,NW,313,0.0,2.0,95,0.10,,,0.55,meteohub,2013-02-22 06:58:00,
2013-02-22 02:03:00,34.9,33.6,30.27,North,355,0.0,2.0,95,0.09,,,0.55,meteohub,2013-02-22 07:03:00,
2013-02-22 02:08:00,34.9,33.6,30.28,NW,310,0.0,2.0,95,0.09,,,0.56,meteohub,2013-02-22 07:08:00,
2013-02-22 02:13:00,34.9,33.6,30.26,NE,43,0.0,0.0,95,0.09,,,0.57,meteohub,2013-02-22 07:13:00,
2013-02-22 02:18:00,34.9,33.6,30.25,NNE,25,0.0,0.0,95,0.09,,,0.58,meteohub,2013-02-22 07:18:00,
2013-02-22 02:23:00,34.9,33.8,30.26,NNE,25,0.0,0.0,96,0.09,,,0.59,meteohub,2013-02-22 07:23:00,
2013-02-22 02:28:00,34.9,33.8,30.26,West,280,2.0,2.0,96,0.09,,,0.59,meteohub,2013-02-22 07:28:00,
2013-02-22 02:33:00,34.9,33.8,30.26,WNW,283,0.0,2.0,96,0.09,,,0.60,meteohub,2013-02-22 07:33:00,
2013-02-22 02:38:00,34.9,33.8,30.25,NNE,16,2.0,3.0,96,0.09,,,0.61,meteohub,2013-02-22 07:38:00,
2013-02-22 02:43:00,35.1,34.0,30.25,North,4,2.0,3.0,96,0.09,,,0.62,meteohub,2013-02-22 07:43:00,
2013-02-22 02:48:00,35.1,34.0,30.24,North,352,1.0,3.0,96,0.09,,,0.63,meteohub,2013-02-22 07:48:00,
2013-02-22 02:53:00,35.1,34.0,30.24,WNW,292,0.0,5.0,96,0.10,,,0.64,meteohub,2013-02-22 07:53:00,
2013-02-22 02:58:00,35.1,34.0,30.24,NNE,16,0.0,5.0,96,0.09,,,0.64,meteohub,2013-02-22 07:58:00,
2013-02-22 03:03:00,34.9,33.6,30.24,NW,316,1.0,5.0,95,0.09,,,0.65,meteohub,2013-02-22 08:03:00,
2013-02-22 03:08:00,34.9,33.6,30.24,NW,325,0.0,5.0,95,0.09,,,0.65,meteohub,2013-02-22 08:08:00,
2013-02-22 03:13:00,34.7,33.4,30.23,NNW,330,0.0,5.0,95,0.08,,,0.65,meteohub,2013-02-22 08:13:00,
2013-02-22 03:18:00,34.5,33.3,30.23,NE,47,3.0,4.0,95,0.08,,,0.66,meteohub,2013-02-22 08:18:00,
2013-02-22 03:23:00,34.5,33.3,30.22,NNW,332,1.0,5.0,95,0.08,,,0.67,meteohub,2013-02-22 08:23:00,
2013-02-22 03:28:00,34.3,33.1,30.22,NNW,338,0.0,5.0,95,0.07,,,0.67,meteohub,2013-02-22 08:28:00,
2013-02-22 03:33:00,34.3,33.1,30.20,WNW,300,0.0,5.0,95,0.06,,,0.67,meteohub,2013-02-22 08:33:00,
2013-02-22 03:38:00,34.2,32.9,30.21,NNW,343,2.0,6.0,95,0.07,,,0.68,meteohub,2013-02-22 08:38:00,
2013-02-22 03:43:00,34.2,32.9,30.21,NNE,20,2.0,7.0,95,0.06,,,0.68,meteohub,2013-02-22 08:43:00,
2013-02-22 03:48:00,34.2,32.9,30.21,WNW,298,1.0,7.0,95,0.05,,,0.68,meteohub,2013-02-22 08:48:00,
2013-02-22 03:53:00,34.2,32.9,30.22,ENE,62,0.0,7.0,95,0.04,,,0.68,meteohub,2013-02-22 08:53:00,
2013-02-22 03:58:00,34.0,32.7,30.22,North,349,0.0,4.0,95,0.04,,,0.68,meteohub,2013-02-22 08:58:00,
2013-02-22 04:03:00,34.0,32.7,30.22,NE,36,0.0,3.0,95,0.04,,,0.69,meteohub,2013-02-22 09:03:00,
2013-02-22 04:08:00,34.0,32.7,30.22,NW,313,0.0,3.0,95,0.04,,,0.69,meteohub,2013-02-22 09:08:00,
2013-02-22 04:13:00,34.0,32.7,30.23,NW,322,1.0,3.0,95,0.04,,,0.70,meteohub,2013-02-22 09:13:00,
2013-02-22 04:19:00,34.0,32.7,30.22,NE,37,2.0,3.0,95,0.06,,,0.72,meteohub,2013-02-22 09:19:00,
2013-02-22 04:24:00,33.6,32.4,30.21,NNW,330,3.0,4.0,95,0.06,,,0.73,meteohub,2013-02-22 09:24:00,
2013-02-22 04:29:00,33.6,32.4,30.21,NE,40,3.0,8.0,95,0.09,,,0.76,meteohub,2013-02-22 09:29:00,
2013-02-22 04:34:00,33.6,32.4,30.21,NW,325,0.0,8.0,95,0.10,,,0.77,meteohub,2013-02-22 09:34:00,
2013-02-22 04:39:00,33.4,32.2,30.21,NNE,19,2.0,8.0,95,0.10,,,0.78,meteohub,2013-02-22 09:39:00,
2013-02-22 04:44:00,33.4,32.2,30.22,NW,320,2.0,6.0,95,0.12,,,0.80,meteohub,2013-02-22 09:44:00,
2013-02-22 04:49:00,33.3,32.0,30.22,North,354,2.0,4.0,95,0.13,,,0.81,meteohub,2013-02-22 09:49:00,
2013-02-22 04:54:00,33.3,32.0,30.23,NE,38,1.0,4.0,95,0.14,,,0.81,meteohub,2013-02-22 09:54:00,
2013-02-22 04:59:00,33.3,32.0,30.22,NW,318,0.0,4.0,95,0.13,,,0.82,meteohub,2013-02-22 09:59:00,
2013-02-22 05:04:00,33.1,31.8,30.23,NW,307,0.0,5.0,95,0.14,,,0.83,meteohub,2013-02-22 10:04:00,
2013-02-22 05:09:00,33.1,31.8,30.22,WNW,284,0.0,5.0,95,0.13,,,0.83,meteohub,2013-02-22 10:09:00,
2013-02-22 05:14:00,33.1,31.8,30.22,NW,305,0.0,5.0,95,0.12,,,0.83,meteohub,2013-02-22 10:14:00,
2013-02-22 05:19:00,32.9,31.6,30.24,NW,318,0.0,8.0,95,0.12,,,0.84,meteohub,2013-02-22 10:19:00,
2013-02-22 05:24:00,32.7,31.5,30.23,NE,40,1.0,8.0,95,0.09,,,0.84,meteohub,2013-02-22 10:24:00,
2013-02-22 05:29:00,32.7,31.5,30.23,NE,41,4.0,6.0,95,0.08,,,0.84,meteohub,2013-02-22 10:29:00,
2013-02-22 05:34:00,32.5,31.3,30.23,ENE,60,3.0,6.0,95,0.07,,,0.84,meteohub,2013-02-22 10:34:00,
2013-02-22 05:39:00,32.5,31.3,30.23,NNW,343,0.0,6.0,95,0.05,,,0.84,meteohub,2013-02-22 10:39:00,
2013-02-22 05:44:00,32.4,31.1,30.24,NE,41,0.0,6.0,95,0.03,,,0.84,meteohub,2013-02-22 10:44:00,
2013-02-22 05:49:00,32.4,31.1,30.24,NNE,16,0.0,6.0,95,0.03,,,0.84,meteohub,2013-02-22 10:49:00,
2013-02-22 05:54:00,32.2,30.9,30.25,NNE,31,1.0,6.0,95,0.02,,,0.84,meteohub,2013-02-22 10:54:00,
2013-02-22 05:59:00,32.2,30.9,30.25,NNE,18,3.0,6.0,95,0.01,,,0.84,meteohub,2013-02-22 10:59:00,
2013-02-22 06:04:00,32.0,30.6,30.25,North,6,1.0,6.0,94,0.01,,,0.84,meteohub,2013-02-22 11:04:00,
2013-02-22 06:09:00,32.0,30.6,30.25,NNE,32,2.0,6.0,94,0.01,,,0.84,meteohub,2013-02-22 11:09:00,
2013-02-22 06:14:00,31.8,30.4,30.25,ENE,71,3.0,4.0,94,0.01,,,0.84,meteohub,2013-02-22 11:14:00,
2013-02-22 06:19:00,31.8,30.0,30.25,SE,136,0.0,3.0,93,0.00,,,0.84,meteohub,2013-02-22 11:19:00,
2013-02-22 06:24:00,31.8,30.0,30.25,NNE,14,3.0,5.0,93,0.00,,,0.84,meteohub,2013-02-22 11:24:00,
2013-02-22 06:29:00,31.8,30.4,30.25,NNE,16,1.0,5.0,94,0.00,,,0.84,meteohub,2013-02-22 11:29:00,
2013-02-22 06:34:00,31.8,30.4,30.25,NNE,25,0.0,6.0,94,0.00,,,0.84,meteohub,2013-02-22 11:34:00,
2013-02-22 06:39:00,31.8,30.4,30.24,NW,320,1.0,6.0,94,0.00,,,0.84,meteohub,2013-02-22 11:39:00,
2013-02-22 06:44:00,31.6,29.8,30.24,SE,125,0.0,4.0,93,0.00,,,0.84,meteohub,2013-02-22 11:44:00,
2013-02-22 06:49:00,31.6,29.8,30.23,NNE,26,1.0,4.0,93,0.00,,,0.84,meteohub,2013-02-22 11:49:00,
2013-02-22 06:54:00,31.6,29.8,30.24,NNE,21,2.0,4.0,93,0.00,,,0.84,meteohub,2013-02-22 11:54:00,
2013-02-22 06:59:00,31.6,30.2,30.23,NNE,15,1.0,4.0,94,0.00,,,0.84,meteohub,2013-02-22 11:59:00,
2013-02-22 07:04:00,31.6,30.2,30.23,North,6,1.0,4.0,94,0.00,,,0.84,meteohub,2013-02-22 12:04:00,
2013-02-22 07:09:00,31.6,30.2,30.23,NNE,25,2.0,3.0,94,0.00,,,0.84,meteohub,2013-02-22 12:09:00,
2013-02-22 07:14:00,31.6,29.8,30.23,ESE,105,0.0,3.0,93,0.00,,,0.84,meteohub,2013-02-22 12:14:00,
2013-02-22 07:19:00,31.6,29.8,30.23,NE,36,2.0,3.0,93,0.00,,,0.84,meteohub,2013-02-22 12:19:00,
2013-02-22 07:25:00,31.6,29.8,30.23,NE,36,3.0,4.0,93,0.00,,,0.84,meteohub,2013-02-22 12:25:00,
2013-02-22 07:30:00,31.6,29.7,30.23,NNE,12,3.0,5.0,92,0.00,,,0.84,meteohub,2013-02-22 12:30:00,
2013-02-22 07:35:00,31.6,29.7,30.23,NE,41,0.0,6.0,92,0.00,,,0.84,meteohub,2013-02-22 12:35:00,
2013-02-22 07:40:00,31.6,29.3,30.23,NNE,30,2.0,6.0,91,0.00,,,0.84,meteohub,2013-02-22 12:40:00,
2013-02-22 07:45:00,31.6,29.7,30.23,NE,38,2.0,6.0,92,0.00,,,0.84,meteohub,2013-02-22 12:45:00,
2013-02-22 07:50:00,31.6,29.7,30.23,NE,54,2.0,3.0,92,0.00,,,0.84,meteohub,2013-02-22 12:50:00,
2013-02-22 07:55:00,31.6,29.7,30.23,North,7,2.0,4.0,92,0.00,,,0.84,meteohub,2013-02-22 12:55:00,
2013-02-22 08:00:00,31.6,29.8,30.23,ENE,72,3.0,4.0,93,0.00,,,0.84,meteohub,2013-02-22 13:00:00,
2013-02-22 08:05:00,31.6,29.7,30.24,North,356,0.0,4.0,92,0.00,,,0.84,meteohub,2013-02-22 13:05:00,
2013-02-22 08:10:00,31.6,29.8,30.25,NE,44,0.0,4.0,93,0.00,,,0.84,meteohub,2013-02-22 13:10:00,
2013-02-22 08:15:00,31.6,29.8,30.24,NE,43,2.0,4.0,93,0.00,,,0.84,meteohub,2013-02-22 13:15:00,
2013-02-22 08:20:00,31.6,29.8,30.24,NE,38,1.0,4.0,93,0.00,,,0.84,meteohub,2013-02-22 13:20:00,
2013-02-22 08:25:00,31.5,29.5,30.24,NNW,335,2.0,5.0,92,0.00,,,0.84,meteohub,2013-02-22 13:25:00,
2013-02-22 08:30:00,31.5,29.5,30.24,NNE,12,1.0,5.0,92,0.00,,,0.84,meteohub,2013-02-22 13:30:00,
2013-02-22 08:35:00,31.3,29.3,30.25,NNE,25,1.0,5.0,92,0.00,,,0.84,meteohub,2013-02-22 13:35:00,
2013-02-22 08:40:00,31.3,29.3,30.25,NE,43,0.0,4.0,92,0.00,,,0.84,meteohub,2013-02-22 13:40:00,
2013-02-22 08:45:00,31.3,29.3,30.24,NE,55,1.0,4.0,92,0.00,,,0.84,meteohub,2013-02-22 13:45:00,
2013-02-22 08:50:00,31.3,29.5,30.25,North,4,2.0,4.0,93,0.00,,,0.84,meteohub,2013-02-22 13:50:00,
2013-02-22 08:55:00,31.3,29.5,30.25,NNE,15,1.0,4.0,93,0.00,,,0.84,meteohub,2013-02-22 13:55:00,
2013-02-22 09:00:00,31.1,29.3,30.26,NE,41,2.0,3.0,93,0.00,,,0.84,meteohub,2013-02-22 14:00:00,
2013-02-22 09:05:00,31.1,29.1,30.25,ENE,75,2.0,3.0,92,0.00,,,0.84,meteohub,2013-02-22 14:05:00,
2013-02-22 09:10:00,30.9,28.9,30.25,NNE,33,4.0,4.0,92,0.00,,,0.84,meteohub,2013-02-22 14:10:00,
2013-02-22 09:15:00,31.1,29.3,30.25,NNE,31,4.0,4.0,93,0.00,,,0.84,meteohub,2013-02-22 14:15:00,
2013-02-22 09:20:00,31.1,29.3,30.25,NW,316,1.0,4.0,93,0.00,,,0.84,meteohub,2013-02-22 14:20:00,
2013-02-22 09:25:00,31.1,29.7,30.25,ENE,78,0.0,4.0,94,0.00,,,0.84,meteohub,2013-02-22 14:25:00,
2013-02-22 09:30:00,31.3,29.5,30.25,NE,36,3.0,4.0,93,0.00,,,0.84,meteohub,2013-02-22 14:30:00,
2013-02-22 09:35:00,31.3,29.8,30.25,North,5,0.0,4.0,94,0.00,,,0.84,meteohub,2013-02-22 14:35:00,
2013-02-22 09:40:00,31.1,29.7,30.24,NNE,22,0.0,4.0,94,0.00,,,0.84,meteohub,2013-02-22 14:40:00,
2013-02-22 09:45:00,31.3,29.8,30.25,NE,36,0.0,4.0,94,0.00,,,0.84,meteohub,2013-02-22 14:45:00,
2013-02-22 09:50:00,31.1,29.7,30.24,East,91,0.0,3.0,94,0.00,,,0.84,meteohub,2013-02-22 14:50:00,
2013-02-22 09:56:00,30.9,29.5,30.24,ENE,71,2.0,2.0,94,0.00,,,0.84,meteohub,2013-02-22 14:56:00,
2013-02-22 10:01:00,31.3,29.8,30.24,NNW,347,0.0,3.0,94,0.00,,,0.84,meteohub,2013-02-22 15:01:00,
2013-02-22 10:06:00,31.3,29.8,30.24,NNE,28,1.0,3.0,94,0.01,,,0.85,meteohub,2013-02-22 15:06:00,
2013-02-22 10:11:00,31.5,30.2,30.24,North,4,0.0,3.0,95,0.01,,,0.85,meteohub,2013-02-22 15:11:00,
2013-02-22 10:16:00,31.5,30.2,30.24,ESE,115,0.0,3.0,95,0.01,,,0.85,meteohub,2013-02-22 15:16:00,
2013-02-22 10:21:00,31.6,30.4,30.24,NNE,28,1.0,2.0,95,0.01,,,0.85,meteohub,2013-02-22 15:21:00,
2013-02-22 10:26:00,31.6,30.4,30.24,NNE,18,2.0,3.0,95,0.01,,,0.85,meteohub,2013-02-22 15:26:00,
2013-02-22 10:31:00,31.6,30.4,30.24,East,101,2.0,5.0,95,0.01,,,0.85,meteohub,2013-02-22 15:31:00,
2013-02-22 10:36:00,31.6,30.4,30.24,NE,43,3.0,5.0,95,0.01,,,0.85,meteohub,2013-02-22 15:36:00,
2013-02-22 10:41:00,31.8,30.6,30.24,NE,44,3.0,5.0,95,0.01,,,0.85,meteohub,2013-02-22 15:41:00,
2013-02-22 10:46:00,32.0,30.7,30.24,NE,36,2.0,4.0,95,0.01,,,0.85,meteohub,2013-02-22 15:46:00,
2013-02-22 10:51:00,32.2,30.9,30.24,NE,52,0.0,5.0,95,0.01,,,0.85,meteohub,2013-02-22 15:51:00,
2013-02-22 10:56:00,32.2,30.9,30.24,ENE,61,0.0,5.0,95,0.02,,,0.86,meteohub,2013-02-22 15:56:00,
2013-02-22 11:01:00,32.4,31.3,30.23,NNE,21,3.0,5.0,96,0.01,,,0.86,meteohub,2013-02-22 16:01:00,
2013-02-22 11:06:00,32.4,31.3,30.24,NE,39,1.0,4.0,96,0.01,,,0.86,meteohub,2013-02-22 16:06:00,
2013-02-22 11:11:00,32.4,31.3,30.24,ENE,65,3.0,6.0,96,0.01,,,0.86,meteohub,2013-02-22 16:11:00,
2013-02-22 11:16:00,32.5,31.5,30.23,NNE,18,2.0,6.0,96,0.01,,,0.86,meteohub,2013-02-22 16:16:00,
2013-02-22 11:21:00,32.5,31.5,30.22,NE,54,3.0,6.0,96,0.01,,,0.86,meteohub,2013-02-22 16:21:00,
2013-02-22 11:26:00,32.5,31.5,30.23,NE,36,3.0,7.0,96,0.01,,,0.86,meteohub,2013-02-22 16:26:00,
2013-02-22 11:31:00,32.7,31.6,30.22,NE,47,4.0,7.0,96,0.01,,,0.86,meteohub,2013-02-22 16:31:00,
2013-02-22 11:36:00,32.7,31.6,30.22,NE,45,1.0,7.0,96,0.01,,,0.86,meteohub,2013-02-22 16:36:00,
2013-02-22 11:41:00,32.7,31.6,30.21,ENE,61,0.0,6.0,96,0.01,,,0.86,meteohub,2013-02-22 16:41:00,
2013-02-22 11:46:00,32.9,31.8,30.22,North,4,0.0,6.0,96,0.01,,,0.86,meteohub,2013-02-22 16:46:00,
2013-02-22 11:51:00,32.9,31.8,30.22,NNE,20,1.0,4.0,96,0.00,,,0.86,meteohub,2013-02-22 16:51:00,
2013-02-22 11:56:00,33.1,32.0,30.22,ENE,61,2.0,4.0,96,0.00,,,0.86,meteohub,2013-02-22 16:56:00,
2013-02-22 12:01:00,33.1,32.0,30.21,NNE,32,1.0,4.0,96,0.00,,,0.86,meteohub,2013-02-22 17:01:00,
2013-02-22 12:06:00,33.1,32.0,30.22,NNE,13,2.0,4.0,96,0.00,,,0.86,meteohub,2013-02-22 17:06:00,
2013-02-22 12:11:00,33.3,32.2,30.22,NNW,342,0.0,4.0,96,0.00,,,0.86,meteohub,2013-02-22 17:11:00,
2013-02-22 12:16:00,33.3,32.2,30.22,North,7,1.0,4.0,96,0.00,,,0.86,meteohub,2013-02-22 17:16:00,
2013-02-22 12:21:00,33.4,32.4,30.21,ENE,62,0.0,3.0,96,0.00,,,0.86,meteohub,2013-02-22 17:21:00,
2013-02-22 12:27:00,33.4,32.4,30.20,NE,44,1.0,3.0,96,0.00,,,0.86,meteohub,2013-02-22 17:27:00,
2013-02-22 12:32:00,33.6,32.5,30.21,North,354,0.0,3.0,96,0.01,,,0.87,meteohub,2013-02-22 17:32:00,
2013-02-22 12:37:00,33.6,32.5,30.21,North,354,1.0,3.0,96,0.01,,,0.87,meteohub,2013-02-22 17:37:00,
2013-02-22 12:42:00,34.0,32.9,30.20,NE,37,1.0,2.0,96,0.01,,,0.87,meteohub,2013-02-22 17:42:00,
2013-02-22 12:47:00,33.6,32.5,30.20,NNE,33,2.0,2.0,96,0.01,,,0.87,meteohub,2013-02-22 17:47:00,
2013-02-22 12:52:00,33.6,32.5,30.20,NNE,27,0.0,5.0,96,0.01,,,0.87,meteohub,2013-02-22 17:52:00,
2013-02-22 12:57:00,33.8,32.7,30.20,NNE,27,0.0,5.0,96,0.01,,,0.87,meteohub,2013-02-22 17:57:00,
2013-02-22 13:02:00,34.0,32.9,30.19,North,0,0.0,4.0,96,0.01,,,0.87,meteohub,2013-02-22 18:02:00,
2013-02-22 13:07:00,34.0,32.9,30.20,WNW,299,0.0,2.0,96,0.01,,,0.87,meteohub,2013-02-22 18:07:00,
2013-02-22 13:12:00,34.0,32.9,30.19,NW,316,0.0,2.0,96,0.01,,,0.87,meteohub,2013-02-22 18:12:00,
2013-02-22 13:17:00,34.2,33.1,30.19,NNW,332,0.0,2.0,96,0.01,,,0.87,meteohub,2013-02-22 18:17:00,
2013-02-22 13:22:00,34.0,32.9,30.19,North,11,3.0,3.0,96,0.01,,,0.87,meteohub,2013-02-22 18:22:00,
2013-02-22 13:27:00,34.0,32.9,30.19,North,354,0.0,4.0,96,0.01,,,0.88,meteohub,2013-02-22 18:27:00,
2013-02-22 13:32:00,34.2,33.1,30.19,NNE,12,1.0,4.0,96,0.01,,,0.88,meteohub,2013-02-22 18:32:00,
2013-02-22 13:37:00,34.2,33.1,30.19,NNE,33,0.0,4.0,96,0.01,,,0.88,meteohub,2013-02-22 18:37:00,
2013-02-22 13:42:00,34.2,33.4,30.19,NNE,12,0.0,2.0,97,0.01,,,0.88,meteohub,2013-02-22 18:42:00,
2013-02-22 13:47:00,34.5,33.8,30.19,NNE,14,0.0,2.0,97,0.01,,,0.88,meteohub,2013-02-22 18:47:00,
2013-02-22 13:52:00,34.5,33.8,30.19,SSW,207,0.0,1.0,97,0.01,,,0.88,meteohub,2013-02-22 18:52:00,
2013-02-22 13:57:00,34.7,34.0,30.19,SSW,207,1.0,1.0,97,0.01,,,0.88,meteohub,2013-02-22 18:57:00,
2013-02-22 14:02:00,34.9,34.2,30.19,West,276,0.0,1.0,97,0.01,,,0.88,meteohub,2013-02-22 19:02:00,
2013-02-22 14:07:00,35.1,34.3,30.19,West,276,0.0,1.0,97,0.01,,,0.88,meteohub,2013-02-22 19:07:00,
2013-02-22 14:12:00,35.1,34.3,30.18,WNW,295,0.0,1.0,97,0.01,,,0.88,meteohub,2013-02-22 19:12:00,
2013-02-22 14:17:00,35.2,34.5,30.18,WNW,291,0.0,1.0,97,0.01,,,0.88,meteohub,2013-02-22 19:17:00,
2013-02-22 14:22:00,35.4,34.7,30.18,WNW,291,0.0,1.0,97,0.00,,,0.88,meteohub,2013-02-22 19:22:00,
2013-02-22 14:27:00,35.4,34.7,30.18,WNW,291,0.0,1.0,97,0.00,,,0.88,meteohub,2013-02-22 19:27:00,
2013-02-22 14:32:00,35.8,35.1,30.18,East,98,0.0,1.0,97,0.00,,,0.88,meteohub,2013-02-22 19:32:00,
2013-02-22 14:37:00,35.8,35.1,30.17,West,280,0.0,1.0,97,0.00,,,0.88,meteohub,2013-02-22 19:37:00,
2013-02-22 14:42:00,36.0,35.2,30.18,West,279,0.0,1.0,97,0.01,,,0.89,meteohub,2013-02-22 19:42:00,
2013-02-22 14:47:00,36.1,35.4,30.18,West,279,0.0,1.0,97,0.01,,,0.89,meteohub,2013-02-22 19:47:00,
2013-02-22 14:52:00,36.3,35.6,30.17,WSW,253,0.0,0.0,97,0.01,,,0.89,meteohub,2013-02-22 19:52:00,
2013-02-22 14:57:00,36.7,36.0,30.17,WSW,253,0.0,1.0,97,0.01,,,0.89,meteohub,2013-02-22 19:57:00,
2013-02-22 15:02:00,36.9,36.1,30.17,WSW,253,0.0,1.0,97,0.01,,,0.89,meteohub,2013-02-22 20:02:00,
2013-02-22 15:07:00,37.0,36.3,30.17,West,276,0.0,1.0,97,0.01,,,0.89,meteohub,2013-02-22 20:07:00,
2013-02-22 15:12:00,37.0,36.3,30.17,West,274,0.0,1.0,97,0.01,,,0.89,meteohub,2013-02-22 20:12:00,
2013-02-22 15:17:00,37.2,36.5,30.18,West,277,0.0,1.0,97,0.01,,,0.89,meteohub,2013-02-22 20:17:00,
2013-02-22 15:22:00,37.2,36.5,30.17,West,277,0.0,1.0,97,0.01,,,0.89,meteohub,2013-02-22 20:22:00,
2013-02-22 15:27:00,37.4,36.7,30.17,West,276,0.0,1.0,97,0.01,,,0.89,meteohub,2013-02-22 20:27:00,
2013-02-22 15:32:00,37.6,36.9,30.16,West,276,0.0,1.0,97,0.01,,,0.89,meteohub,2013-02-22 20:32:00,
2013-02-22 15:37:00,37.6,36.9,30.16,West,276,0.0,1.0,97,0.01,,,0.89,meteohub,2013-02-22 20:37:00,
2013-02-22 15:42:00,37.8,37.0,30.16,West,276,0.0,0.0,97,0.00,,,0.89,meteohub,2013-02-22 20:42:00,
2013-02-22 15:47:00,37.9,37.2,30.16,West,277,0.0,0.0,97,0.00,,,0.89,meteohub,2013-02-22 20:47:00,
2013-02-22 15:52:00,38.1,37.4,30.16,West,277,0.0,0.0,97,0.00,,,0.89,meteohub,2013-02-22 20:52:00,
2013-02-22 15:57:00,38.1,37.4,30.16,West,277,0.0,0.0,97,0.00,,,0.89,meteohub,2013-02-22 20:57:00,
2013-02-22 16:02:00,38.5,37.8,30.16,West,277,0.0,0.0,97,0.00,,,0.89,meteohub,2013-02-22 21:02:00,
2013-02-22 16:07:00,38.5,37.8,30.16,West,277,0.0,0.0,97,0.00,,,0.89,meteohub,2013-02-22 21:07:00,
2013-02-22 16:12:00,38.5,37.8,30.16,West,277,0.0,0.0,97,0.00,,,0.89,meteohub,2013-02-22 21:12:00,
2013-02-22 16:17:00,38.5,37.8,30.16,West,277,0.0,0.0,97,0.00,,,0.89,meteohub,2013-02-22 21:17:00,
2013-02-22 16:22:00,38.5,37.8,30.16,West,277,0.0,0.0,97,0.00,,,0.89,meteohub,2013-02-22 21:22:00,
2013-02-22 16:27:00,38.5,37.8,30.16,West,277,0.0,0.0,97,0.00,,,0.89,meteohub,2013-02-22 21:27:00,
2013-02-22 16:32:00,38.7,37.9,30.16,West,277,0.0,0.0,97,0.00,,,0.89,meteohub,2013-02-22 21:32:00,
2013-02-22 16:37:00,38.7,37.9,30.15,West,277,0.0,0.0,97,0.00,,,0.89,meteohub,2013-02-22 21:37:00,
2013-02-22 16:42:00,38.8,38.1,30.15,West,274,0.0,0.0,97,0.00,,,0.89,meteohub,2013-02-22 21:42:00,
2013-02-22 16:47:00,39.0,38.3,30.14,SW,225,0.0,2.0,97,0.00,,,0.89,meteohub,2013-02-22 21:47:00,
2013-02-22 16:52:00,39.2,38.5,30.14,SW,229,0.0,2.0,97,0.00,,,0.89,meteohub,2013-02-22 21:52:00,
2013-02-22 16:57:00,39.0,38.3,30.14,NE,50,1.0,2.0,97,0.00,,,0.89,meteohub,2013-02-22 21:57:00,
2013-02-22 17:02:00,39.0,38.3,30.14,North,8,0.0,2.0,97,0.00,,,0.89,meteohub,2013-02-22 22:02:00,
2013-02-22 17:07:00,38.8,38.1,30.14,NE,53,1.0,2.0,97,0.00,,,0.89,meteohub,2013-02-22 22:07:00,
2013-02-22 17:12:00,38.8,38.1,30.14,NE,51,0.0,2.0,97,0.00,,,0.89,meteohub,2013-02-22 22:12:00,
2013-02-22 17:17:00,38.8,38.1,30.14,ENE,68,1.0,1.0,97,0.00,,,0.89,meteohub,2013-02-22 22:17:00,
2013-02-22 17:22:00,38.7,37.9,30.14,East,84,0.0,2.0,97,0.00,,,0.89,meteohub,2013-02-22 22:22:00,
2013-02-22 17:27:00,38.7,37.9,30.14,ENE,77,0.0,2.0,97,0.00,,,0.89,meteohub,2013-02-22 22:27:00,
2013-02-22 17:32:00,38.7,37.9,30.14,ENE,71,0.0,2.0,97,0.00,,,0.89,meteohub,2013-02-22 22:32:00,
2013-02-22 17:37:00,38.7,37.9,30.14,ENE,71,0.0,2.0,97,0.00,,,0.89,meteohub,2013-02-22 22:37:00,
2013-02-22 17:42:00,38.8,38.1,30.14,ENE,70,0.0,1.0,97,0.00,,,0.89,meteohub,2013-02-22 22:42:00,
2013-02-22 17:47:00,38.8,38.1,30.13,NNE,23,0.0,0.0,97,0.00,,,0.89,meteohub,2013-02-22 22:47:00,
2013-02-22 17:52:00,38.8,38.1,30.14,NE,36,0.0,2.0,97,0.01,,,0.90,meteohub,2013-02-22 22:52:00,
2013-02-22 17:57:00,38.8,38.1,30.15,NE,36,0.0,2.0,97,0.01,,,0.90,meteohub,2013-02-22 22:57:00,
2013-02-22 18:02:00,38.7,37.9,30.15,NE,43,0.0,2.0,97,0.01,,,0.90,meteohub,2013-02-22 23:02:00,
2013-02-22 18:07:00,38.5,37.8,30.15,NE,53,0.0,2.0,97,0.01,,,0.90,meteohub,2013-02-22 23:07:00,
2013-02-22 18:12:00,38.5,37.8,30.16,NE,51,0.0,2.0,97,0.01,,,0.90,meteohub,2013-02-22 23:12:00,
2013-02-22 18:17:00,38.5,37.8,30.16,East,101,0.0,1.0,97,0.01,,,0.90,meteohub,2013-02-22 23:17:00,
2013-02-22 18:22:00,38.5,37.8,30.15,ENE,57,0.0,1.0,97,0.01,,,0.90,meteohub,2013-02-22 23:22:00,
2013-02-22 18:27:00,38.5,37.8,30.16,NE,56,0.0,2.0,97,0.01,,,0.90,meteohub,2013-02-22 23:27:00,
2013-02-22 18:32:00,38.5,37.8,30.15,NE,55,0.0,2.0,97,0.01,,,0.90,meteohub,2013-02-22 23:32:00,
2013-02-22 18:37:00,38.3,37.6,30.15,ENE,58,0.0,2.0,97,0.01,,,0.90,meteohub,2013-02-22 23:37:00,
2013-02-22 18:42:00,38.3,37.6,30.14,NE,46,1.0,1.0,97,0.01,,,0.90,meteohub,2013-02-22 23:42:00,
2013-02-22 18:47:00,38.1,37.4,30.15,North,358,0.0,2.0,97,0.00,,,0.90,meteohub,2013-02-22 23:47:00,
2013-02-22 18:52:00,38.1,37.4,30.15,North,359,0.0,2.0,97,0.00,,,0.90,meteohub,2013-02-22 23:52:00,
2013-02-22 18:57:00,38.1,37.4,30.15,NNE,32,0.0,2.0,97,0.00,,,0.90,meteohub,2013-02-22 23:57:00,
2013-02-22 19:02:00,38.1,37.4,30.15,NNE,32,0.0,1.0,97,0.00,,,0.90,meteohub,2013-02-23 00:02:00,
2013-02-22 19:07:00,38.1,37.4,30.16,NNE,32,0.0,1.0,97,0.00,,,0.00,meteohub,2013-02-23 00:07:00,
2013-02-22 19:12:00,38.1,37.4,30.15,East,83,0.0,1.0,97,0.00,,,0.00,meteohub,2013-02-23 00:12:00,
2013-02-22 19:17:00,38.1,37.4,30.15,East,96,0.0,1.0,97,0.00,,,0.00,meteohub,2013-02-23 00:17:00,
2013-02-22 19:22:00,38.1,37.4,30.16,East,96,0.0,1.0,97,0.00,,,0.00,meteohub,2013-02-23 00:22:00,
2013-02-22 19:27:00,38.1,37.4,30.16,East,96,0.0,1.0,97,0.00,,,0.00,meteohub,2013-02-23 00:27:00,
2013-02-22 19:32:00,37.9,37.2,30.16,East,95,0.0,1.0,97,0.00,,,0.00,meteohub,2013-02-23 00:32:00,
2013-02-22 19:37:00,37.9,37.2,30.15,SE,130,0.0,1.0,97,0.00,,,0.00,meteohub,2013-02-23 00:37:00,
2013-02-22 19:42:00,37.9,37.2,30.15,East,88,0.0,1.0,97,0.00,,,0.00,meteohub,2013-02-23 00:42:00,
2013-02-22 19:47:00,37.9,37.2,30.16,ENE,73,0.0,1.0,97,0.00,,,0.00,meteohub,2013-02-23 00:47:00,
2013-02-22 19:52:00,37.9,37.2,30.16,NNE,18,0.0,1.0,97,0.00,,,0.00,meteohub,2013-02-23 00:52:00,
2013-02-22 19:57:00,37.9,37.2,30.16,NNE,18,0.0,0.0,97,0.00,,,0.00,meteohub,2013-02-23 00:57:00,
2013-02-22 20:02:00,37.9,37.2,30.16,NNE,18,0.0,0.0,97,0.00,,,0.00,meteohub,2013-02-23 01:02:00,
2013-02-22 20:07:00,37.9,37.2,30.15,NNE,18,0.0,0.0,97,0.00,,,0.00,meteohub,2013-02-23 01:07:00,
2013-02-22 20:12:00,37.9,37.2,30.15,NNE,18,1.0,0.0,97,0.00,,,0.00,meteohub,2013-02-23 01:12:00,
2013-02-22 20:17:00,37.8,37.0,30.16,NNE,18,0.0,1.0,97,0.00,,,0.00,meteohub,2013-02-23 01:17:00,
2013-02-22 20:22:00,37.8,37.0,30.17,NNE,18,0.0,1.0,97,0.00,,,0.00,meteohub,2013-02-23 01:22:00,
2013-02-22 20:27:00,37.8,37.0,30.17,NNE,18,0.0,1.0,97,0.00,,,0.00,meteohub,2013-02-23 01:27:00,
2013-02-22 20:32:00,37.9,37.2,30.17,NNE,18,0.0,1.0,97,0.00,,,0.00,meteohub,2013-02-23 01:32:00,
2013-02-22 20:37:00,37.9,37.2,30.17,NNE,18,0.0,0.0,97,0.00,,,0.00,meteohub,2013-02-23 01:37:00,
2013-02-22 20:42:00,38.1,37.6,30.18,NNE,18,0.0,0.0,98,0.00,,,0.00,meteohub,2013-02-23 01:42:00,
2013-02-22 20:47:00,38.5,37.9,30.17,NNE,18,0.0,1.0,98,0.00,,,0.00,meteohub,2013-02-23 01:47:00,
2013-02-22 20:52:00,38.5,37.9,30.17,NNE,18,0.0,1.0,98,0.00,,,0.00,meteohub,2013-02-23 01:52:00,
2013-02-22 20:57:00,38.5,37.9,30.17,NNE,18,0.0,1.0,98,0.00,,,0.00,meteohub,2013-02-23 01:57:00,
2013-02-22 21:02:00,38.5,37.9,30.17,SE,136,0.0,1.0,98,0.00,,,0.00,meteohub,2013-02-23 02:02:00,
2013-02-22 21:07:00,38.7,38.1,30.17,SE,136,0.0,1.0,98,0.00,,,0.00,meteohub,2013-02-23 02:07:00,
2013-02-22 21:12:00,38.5,37.9,30.17,SE,137,0.0,1.0,98,0.00,,,0.00,meteohub,2013-02-23 02:12:00,
2013-02-22 21:17:00,38.5,37.8,30.18,SE,136,0.0,1.0,97,0.00,,,0.00,meteohub,2013-02-23 02:17:00,
2013-02-22 21:22:00,38.5,37.8,30.17,WSW,238,0.0,1.0,97,0.00,,,0.00,meteohub,2013-02-23 02:22:00,
2013-02-22 21:27:00,38.5,37.9,30.17,North,10,1.0,1.0,98,0.00,,,0.00,meteohub,2013-02-23 02:27:00,
2013-02-22 21:32:00,38.5,37.9,30.17,NNE,12,0.0,1.0,98,0.00,,,0.00,meteohub,2013-02-23 02:32:00,
2013-02-22 21:37:00,38.5,37.9,30.17,NNE,12,0.0,1.0,98,0.00,,,0.00,meteohub,2013-02-23 02:37:00,
2013-02-22 21:42:00,38.5,37.9,30.16,NNE,12,0.0,1.0,98,0.00,,,0.00,meteohub,2013-02-23 02:42:00,
2013-02-22 21:47:00,38.5,37.9,30.16,NNE,12,0.0,1.0,98,0.00,,,0.00,meteohub,2013-02-23 02:47:00,
2013-02-22 21:52:00,38.7,38.1,30.13,NNE,33,2.0,2.0,98,0.00,,,0.00,meteohub,2013-02-23 02:52:00,
2013-02-22 21:57:00,38.8,38.3,30.13,NNE,27,0.0,4.0,98,0.00,,,0.00,meteohub,2013-02-23 02:57:00,
2013-02-22 22:02:00,38.7,38.1,30.15,NW,323,0.0,4.0,98,0.00,,,0.00,meteohub,2013-02-23 03:02:00,
2013-02-22 22:07:00,38.7,38.1,30.15,NW,325,0.0,4.0,98,0.00,,,0.00,meteohub,2013-02-23 03:07:00,
2013-02-22 22:12:00,38.8,38.3,30.15,WNW,294,0.0,1.0,98,0.00,,,0.00,meteohub,2013-02-23 03:12:00,
2013-02-22 22:17:00,38.8,38.3,30.15,SSW,210,0.0,1.0,98,0.00,,,0.00,meteohub,2013-02-23 03:17:00,
2013-02-22 22:22:00,38.8,38.3,30.15,SE,131,0.0,1.0,98,0.00,,,0.00,meteohub,2013-02-23 03:22:00,
2013-02-22 22:27:00,39.0,38.5,30.15,SE,129,0.0,1.0,98,0.00,,,0.00,meteohub,2013-02-23 03:27:00,
2013-02-22 22:32:00,39.0,38.5,30.14,NNE,28,2.0,2.0,98,0.00,,,0.00,meteohub,2013-02-23 03:32:00,
2013-02-22 22:37:00,38.8,38.3,30.14,ENE,63,0.0,2.0,98,0.00,,,0.00,meteohub,2013-02-23 03:37:00,
2013-02-22 22:42:00,38.8,38.3,30.14,ESE,110,0.0,3.0,98,0.00,,,0.00,meteohub,2013-02-23 03:42:00,
2013-02-22 22:47:00,38.8,38.3,30.13,ENE,60,0.0,3.0,98,0.00,,,0.00,meteohub,2013-02-23 03:47:00,
2013-02-22 22:52:00,38.8,38.3,30.13,ESE,115,1.0,4.0,98,0.00,,,0.00,meteohub,2013-02-23 03:52:00,
2013-02-22 22:57:00,38.8,38.3,30.13,ESE,114,0.0,4.0,98,0.00,,,0.00,meteohub,2013-02-23 03:57:00,
2013-02-22 23:02:00,38.8,38.3,30.14,WSW,243,0.0,4.0,98,0.00,,,0.00,meteohub,2013-02-23 04:02:00,
2013-02-22 23:07:00,38.8,38.3,30.15,WSW,243,0.0,1.0,98,0.00,,,0.00,meteohub,2013-02-23 04:07:00,
2013-02-22 23:12:00,38.8,38.3,30.16,WSW,243,0.0,0.0,98,0.00,,,0.00,meteohub,2013-02-23 04:12:00,
2013-02-22 23:17:00,39.4,38.8,30.16,WSW,253,1.0,0.0,98,0.00,,,0.00,meteohub,2013-02-23 04:17:00,
2013-02-22 23:22:00,40.5,39.9,30.16,WSW,250,1.0,3.0,98,0.00,,,0.00,meteohub,2013-02-23 04:22:00,
2013-02-22 23:27:00,41.0,40.5,30.15,West,259,0.0,3.0,98,0.01,,,0.01,meteohub,2013-02-23 04:27:00,
2013-02-22 23:32:00,41.4,40.8,30.16,WNW,287,0.0,4.0,98,0.01,,,0.01,meteohub,2013-02-23 04:32:00,
2013-02-22 23:37:00,41.5,41.0,30.16,West,263,0.0,4.0,98,0.01,,,0.01,meteohub,2013-02-23 04:37:00,
2013-02-22 23:42:00,41.7,41.2,30.15,NW,325,0.0,4.0,98,0.02,,,0.02,meteohub,2013-02-23 04:42:00,
2013-02-22 23:47:00,41.9,41.4,30.15,WSW,243,0.0,4.0,98,0.02,,,0.02,meteohub,2013-02-23 04:47:00,
2013-02-22 23:52:00,42.1,41.5,30.14,NNE,29,0.0,2.0,98,0.02,,,0.02,meteohub,2013-02-23 04:52:00,
2013-02-22 23:57:00,41.9,41.4,30.15,WNW,301,0.0,5.0,98,0.02,,,0.02,meteohub,2013-02-23 04:57:00,